Regional Weather Roundup
Issued by NWS

Home | Current Version | Previous Version | Text Only | Print | Product List | Glossary Off
Versions: 1 2 3 4 5 6 7 8 9 10 11 12 13 14 15 16 17 18 19 20 21 22 23 24 25 26 27 28 29 30 31 32 33 34 35 36 37 38 39 40 41 42 43 44 45 46 47 48 49 50

000
ASUS43 KDTX 020110
RWRMI
MICHIGAN HOURLY REGIONAL WEATHER ROUNDUP
NATIONAL WEATHER SERVICE DETROIT/PONTIAC MI
900 PM EDT WED APR 01 2015

NOTE: "FAIR" INDICATES FEW OR NO CLOUDS BELOW 12,000 FEET WITH NO
SIGNIFICANT WEATHER AND/OR OBSTRUCTION TO VISIBILITY.

MIZ047>049-052>055-059>063-066>070-074>076-081>083-020200-
SOUTHEAST LOWER MICHIGAN

CITY           SKY/WX    TMP DP  RH WIND       PRES   REMARKS
ADRIAN         CLEAR     53  37  54 S8        30.02R
ALMA           PTCLDY    51  39  63 CALM      29.93S
ANN ARBOR      CLEAR     47  37  68 SE5       30.02R
BAD AXE        MOCLDY    44  36  73 SE7       30.00R
DETROIT CITY   CLEAR     48  36  63 S9        30.03R
DETROIT        MOCLDY    45  35  68 SE8       30.05R
FLINT          CLEAR     51  38  60 SE12      29.98R
GROSSE ILE     CLEAR     43  36  75 SE12      30.03R
HILLSDALE      CLEAR     57  35  43 S6        29.99R
HOWELL         CLEAR     53  37  54 SE10      29.98R

CITY           SKY/WX    TMP DP  RH WIND       PRES   REMARKS
JACKSON        CLEAR     58  33  39 S9        29.97S
LAMBERTVILLE   PTCLDY    46  37  71 CALM      30.03R
LANSING        PTCLDY    56  33  42 S8        29.96S
LAPEER         NOT AVBL
MASON          CLEAR     53  35  51 SE6       29.96S
MONROE         PTCLDY    43  36  75 SE8       30.02R
MT. CLEMENS    CLEAR     38  35  87 SE10      30.01R
PONTIAC        MOCLDY    47  39  74 SE6       30.00R
PORT HOPE        N/A     41  35  79 S8        29.98R
PORT HURON     CLEAR     41  37  87 SE5       30.04R
TRI CITIES     PTCLDY    50  34  54 SE7       29.95F
YPSILANTI      CLEAR     47  36  65 SE10      30.03R
$$
MIZ043>046-050>051-056>058-064>065-071>073-077>080-020200-
SOUTHWEST LOWER MICHIGAN

CITY           SKY/WX    TMP DP  RH WIND       PRES   REMARKS
BATTLE CREEK   PTCLDY    59  36  42 S9        29.96R
BENTON HARBOR  PTCLDY    62  36  37 S10       29.92R
BIG RAPIDS     MOCLDY    57  31  38 S7        29.88F
COLDWATER      PTCLDY    58  33  38 S7        29.97R
HOLLAND        PTCLDY    60  37  42 S6        29.91R
GRAND RAPIDS   MOCLDY    57  35  43 S9        29.92S
KALAMAZOO      CLEAR     62  37  39 S9        29.95S
MARSHALL       CLEAR     58  35  42 S8        29.95S
MUSKEGON       MOCLDY    60  34  37 S9        29.88F
$$
MIZ016>042-020200-
NORTHERN LOWER MICHIGAN

CITY           SKY/WX    TMP DP  RH WIND       PRES   REMARKS
ALPENA         CLOUDY    42  30  62 SE10      29.94S
BEAVER ISLAND  CLOUDY    37  30  74 E9        29.84F
BELLAIRE       CLOUDY    54  29  38 S10G16    29.84R
CADILLAC       CLOUDY    54  31  42 SE9       29.86S
CHARLEVOIX     CLOUDY    53  29  39 SE3       29.87R
FRANKFORT      CLOUDY    61  22  21 S13G20    29.79F
GAYLORD        CLOUDY    49  29  46 S14       29.86S
GRAYLING       CLOUDY    50  29  44 SE8       29.89S
HARBOR SPRINGS CLOUDY    48  29  48 NE3       29.86R
HOUGHTON LAKE  CLOUDY    50  33  52 SE9       29.90F
MANISTEE       CLOUDY    59  28  31 S9        29.82F
OSCODA         CLOUDY    41  35  79 S12       29.94F
PELLSTON       CLOUDY    41  31  67 N7        29.89R
TRAVERSE CITY  CLOUDY    57  30  35 S6        29.81F
$$
MIZ007>008-015-020200-
EASTERN UPPER MICHIGAN

CITY           SKY/WX    TMP DP  RH WIND       PRES   REMARKS
KINROSS        CLOUDY    36  28  75 E14       29.91R
MACKINAC ISLAN CLOUDY    34  30  86 E9G16     29.90R
NEWBERRY       LGT RAIN  35  29  79 SE13      29.82F
S. S. MARIE    CLOUDY    35  23  61 E8        29.92S
$$
MIZ004>006-011>014-085-020200-
CENTRAL UPPER MICHIGAN

CITY           SKY/WX    TMP DP  RH WIND       PRES   REMARKS
MANISTIQUE     LGT RAIN  38  32  77 E8        29.81F
ESCANABA       CLOUDY    39  32  75 SE14      29.75F
MENOMINEE      CLOUDY    43  34  70 E6        29.71F
SAWYER-GWINN   LGT RAIN  36  32  87 S17       29.72F
$$
MIZ001>003-009>011-084-020200-
WESTERN UPPER MICHIGAN

CITY           SKY/WX    TMP DP  RH WIND       PRES   REMARKS
IRON MOUNTAIN  CLOUDY    44  30  57 SE10      29.67F
HOUGHTON       CLOUDY    41  36  82 SE12      29.56F
COPPER HARBOR    N/A     38  33  82 S13G24    29.57F
IRONWOOD       MOCLDY    61  37  41 S18G31    29.45F
$$

ABBREVIATIONS USED IN REMARKS
   TC - TEMPERATURE IN CELSIUS
  WCI - WIND CHILL INDEX
   HX - HEAT INDEX
  VSB - VISIBILITY



USA.gov is the U.S. government's official web portal to all federal, state and local government web resources and services.